Regional Weather Roundup
Issued by NWS

Home | Current Version | Previous Version | Text Only | Print | Product List | Glossary Off
Versions: 1 2 3 4 5 6 7 8 9 10 11 12 13 14 15 16 17 18 19 20 21 22 23 24 25 26 27 28 29 30 31 32 33 34 35 36 37 38 39 40 41 42 43 44 45 46 47 48 49 50

000
ASUS43 KBIS 241502
RWRND

NORTH DAKOTA REGIONAL WEATHER ROUNDUP
NATIONAL WEATHER SERVICE BISMARCK ND
1000 AM CDT WED MAY 24 2017

NOTE: "FAIR" INDICATES FEW OR NO CLOUDS BELOW 12,000 FEET WITH NO
SIGNIFICANT WEATHER AND/OR OBSTRUCTIONS TO VISIBILITY.


NDZ001>003-009>011-017-241600-
NORTHWEST NORTH DAKOTA

CITY           SKY/WX    TMP DP  RH WIND       PRES   REMARKS
WILLISTON      FAIR      62  37  39 SE23G39   29.53F
MINOT          FAIR      61  34  36 SE20G37   29.67F
MINOT AFB      MOSUNNY   61  35  37 S24G30    29.65F
$$

NDZ018>021-031>035-040>046-241600-
SOUTHWEST NORTH DAKOTA

CITY           SKY/WX    TMP DP  RH WIND       PRES   REMARKS
BISMARCK       FAIR      59  42  53 SE15      29.72F
DICKINSON      FAIR      56  34  43 S29G36    29.61F
GARRISON         N/A     57  38  48 S16       29.66F
HETTINGER ARPT SUNNY     57  36  45 S21       29.67F
$$

NDZ004>008-012>016-024-026-027-054-241600-
NORTHEAST NORTH DAKOTA

CITY           SKY/WX    TMP DP  RH WIND       PRES   REMARKS
GRAND FORKS    SUNNY     60  45  57 SE12      29.79F
GRND FRKS AFB  SUNNY     59  43  56 SE12      29.79F
DEVILS LAKE    FAIR      56  41  57 S14G21    29.76
$$

NDZ022-023-025-028>030-036>039-047>053-241600-
SOUTHEAST NORTH DAKOTA

CITY           SKY/WX    TMP DP  RH WIND       PRES   REMARKS
FARGO          SUNNY     57  45  64 SE9       29.80F
JAMESTOWN      FAIR      54  44  69 S12       29.77F
$$




USA.gov is the U.S. government's official web portal to all federal, state and local government web resources and services.